Flag Weather past 2 weeks in Cumberland, Maryland, U.S.A.

Now
35 °F

Overcast.


Feels Like: 35 °F
Forecast: 32 / 41 °F
Wind: No wind

Location: Eastern West Virginia Regional Airport

Current Time: Nov 27, 2014 at 3:51:54 AM

Latest Report: Nov 27, 2014 at 2:53 AM


Visibility: 7 mi

Pressure: 30.02 "Hg

Humidity: 85%

Dew point: 31 °F

Location of CumberlandLocation

Historic Weather in Cumberland — Graph

°F

Cumberland temperature yesterday

Maximum temperature yesterday: 43 °F (at 1:53 AM)
Minimum temperature yesterday: 34 °F (at 10:01 AM)
Average temperature yesterday: 37 °F

Past Weeks' High & Low Weather Summary

 TemperatureHumidityPressure
High72 °F (Nov 24, 2:53 PM)89% (Nov 17, 9:59 AM)30.55 "Hg (Nov 17, 9:59 AM)
Low13 °F (Nov 22, 6:53 AM)22% (Nov 22, 1:53 PM)29.54 "Hg (Nov 17, 1:53 PM)
Average38 °F53%30.10 "Hg
* Reported Nov 12 1:53 AM — Nov 27 1:53 AM, Cumberland, Weather by CustomWeather, © 2014

Note: Actual official high and low records may vary slightly from our data, if they occured in-between our weather recording intervals... More about our weather records

Advertising

Cumberland weather history for previous 24 hours

 ConditionsComfort  
Time TempWeatherWind HumidityBarometerVisibility
1:53 AM
Nov 27
35 °FFog.No wind85%30.02 "Hg6 mi
12:53 AM35 °FOvercast.No wind85%30.01 "Hg7 mi
11:53 PM
Nov 26
34 °FOvercast.No wind88%30.01 "Hg7 mi
10:53 PM34 °FOvercast.No wind88%30.01 "Hg7 mi
9:53 PM36 °FOvercast.No wind82%30.01 "Hg10 mi
8:53 PM37 °FMostly cloudy.5 mph76%29.99 "Hg10 mi
8:00 PM36 °FPassing clouds.7 mph79%29.98 "Hg10 mi
6:53 PM35 °FOvercast.3 mph85%29.97 "Hg10 mi
5:53 PM35 °FMostly cloudy.No wind85%29.99 "Hg10 mi
4:53 PM35 °FMostly cloudy.5 mph85%29.99 "Hg10 mi
3:53 PM35 °FLight snow. Fog.5 mph85%29.99 "Hg4 mi
3:01 PM34 °FLight snow. Fog.5 mph85%29.96 "Hg2 mi
2:53 PM34 °FLight snow. Fog.3 mph85%29.96 "Hg2 mi
2:01 PM34 °FLight snow. Fog.5 mph85%29.96 "Hg1 mi
1:53 PM34 °FLight snow. Fog.5 mph85%29.97 "Hg1 mi
12:53 PM34 °FLight snow. Fog.8 mph88%29.98 "Hg1 mi
11:53 AM34 °FLight snow. Fog.7 mph88%30.03 "Hg1 mi
10:53 AM34 °FLight snow. Fog.9 mph85%30.07 "Hg1 mi
10:01 AM34 °FLight snow. Fog.6 mph88%30.10 "Hg1 mi
8:53 AM36 °FRain. Fog.8 mph89%30.06 "Hg2 mi
7:53 AM38 °FLight rain. Overcast.10 mph83%30.07 "Hg4 mi
6:53 AM39 °FLight rain. Overcast.7 mph82%30.09 "Hg5 mi
5:53 AM40 °FLight rain. Overcast.6 mph77%30.10 "Hg5 mi
4:53 AM41 °FLight rain. Overcast.10 mph67%30.09 "Hg9 mi
3:53 AM42 °FLight rain. Mostly cloudy.9 mph60%30.12 "Hg10 mi
Weather by CustomWeather, © 2014

See weather overviewHow to use our weather pages